Вернуться в каталог

ARIANE 44LP DEB

АктивенHEO
NORAD 25928·DEBRIS·🇫🇷 France

Запущен Mar 2, 1991 с Guiana Space Centre

Loading…

Ближайшие Пролёты (ближайшие 24 часа)

TLE

СвежийSource: Space-Track

Эпоха: Sep 14, 2026, 04:11 UTC

1 25928U 91015J   26257.17493346 -.00000349  00000-0 -26778-2 0  9991
2 25928   7.7238 229.6966 6621691 178.8708 297.4227  2.92223370301787

Отслеживайте ARIANE 44LP DEB в реальном времени с AllMySat

Download on the App Store